Waarnemingen

Advertentie
Mijn weer
Soderstjerna, Zweden (2667): temperatuur & dauwpunt: 29.07.2020 21:00:00 - 04.08.2020 21:00:00 (CEST)Soderstjerna, Zweden (2667): windsnelheid & windstoten: 29.07.2020 21:00:00 - 04.08.2020 21:00:00 (CEST)Soderstjerna, Zweden (2667): windrichting: 29.07.2020 21:00:00 - 04.08.2020 21:00:00 (CEST)Soderstjerna, Zweden (2667): luchtdruk: 29.07.2020 21:00:00 - 04.08.2020 21:00:00 (CEST)Soderstjerna, Zweden (2667): zicht: 29.07.2020 21:00:00 - 04.08.2020 21:00:00 (CEST)Soderstjerna, Zweden (2667): neerslag: 29.07.2020 21:00:00 - 04.08.2020 21:00:00 (CEST)
Datum & Tijd tt [°C] td [°C] ff [km/u] ff [kn] fx [km/u] fx [kn] dd ppp [hPa] vv [km] rr [mm]
04.08.2020 21:00:00 - - - - - - - - - -
04.08.2020 20:00:00 19,5 8,2 22 12 32 18 W 1013,3 45 0,0
04.08.2020 19:00:00 20,3 9,2 25 14 32 18 W 1012,7 45 0,0
04.08.2020 18:00:00 20,9 9,5 18 10 36 19 W 1012,1 45 0,0
04.08.2020 17:00:00 20,9 11,8 22 12 36 19 W 1011,7 35 0,0
04.08.2020 16:00:00 21,7 8,9 14 8 32 18 W 1011,6 40 0,0
04.08.2020 15:00:00 21,8 8,3 18 10 32 18 WNW 1011,6 40 0,0
04.08.2020 14:00:00 20,9 10,4 14 8 32 18 W 1011,4 35 0,0
04.08.2020 13:00:00 19,0 12,5 22 12 32 18 W 1011,4 30 0,0
04.08.2020 12:00:00 17,9 12,8 25 14 36 19 WZW 1011,4 35 0,0
04.08.2020 11:00:00 17,8 12,9 18 10 25 14 W 1011,6 35 0,0
04.08.2020 10:00:00 17,0 11,5 14 8 22 12 WNW 1011,4 25 0,0
04.08.2020 09:00:00 15,9 11,5 11 6 18 10 WNW 1011,5 35 0,0
04.08.2020 08:00:00 14,4 11,5 7 4 18 10 NNW 1011,6 35 0,0
04.08.2020 07:00:00 13,0 11,2 11 6 18 10 WNW 1011,5 40 0,0
04.08.2020 06:00:00 12,5 11,4 11 6 14 8 WNW 1011,2 40 0,0
04.08.2020 05:00:00 13,2 11,3 11 6 18 10 NW 1011,0 45 0,0
04.08.2020 04:00:00 13,7 11,4 11 6 18 10 NNW 1011,0 45 0,0
04.08.2020 03:00:00 13,9 11,6 11 6 18 10 NNW 1010,7 45 0,0
04.08.2020 02:00:00 14,4 11,5 11 6 18 10 NNW 1010,9 45 0,0
04.08.2020 01:00:00 15,4 11,6 11 6 22 12 NNW 1010,8 45 0,0
04.08.2020 00:00:00 16,1 11,3 11 6 22 12 NW 1010,5 50 0,0
03.08.2020 23:00:00 17,1 11,4 7 4 14 8 NW 1010,0 50 0,0
03.08.2020 22:00:00 18,0 11,3 7 4 14 8 NW 1010,0 45 0,0
03.08.2020 21:00:00 19,1 11,2 7 4 22 12 WNW 1009,8 50 0,0
03.08.2020 20:00:00 18,7 13,8 14 8 25 14 WZW 1009,5 45 0,0
03.08.2020 19:00:00 19,0 14,3 18 10 32 18 WZW 1009,3 45 0,0
03.08.2020 18:00:00 19,5 13,2 22 12 32 18 WZW 1009,4 40 0,0
03.08.2020 17:00:00 20,0 13,5 22 12 29 16 WZW 1009,4 35 0,0
03.08.2020 16:00:00 20,4 13,6 22 12 32 18 WZW 1009,6 30 0,0
03.08.2020 15:00:00 19,7 12,9 25 14 32 18 WZW 1009,6 45 0,0
03.08.2020 14:00:00 19,1 13,1 25 14 32 18 WZW 1009,8 30 0,0
03.08.2020 13:00:00 18,8 13,9 22 12 25 14 WZW 1010,1 35 0,0
03.08.2020 12:00:00 18,7 14,8 18 10 25 14 WZW 1010,3 30 0,0
03.08.2020 11:00:00 18,8 14,7 7 4 14 8 W 1010,3 40 0,0
03.08.2020 10:00:00 16,8 15,3 4 2 11 6 W 1010,3 40 0,0
03.08.2020 09:00:00 15,8 14,5 4 2 11 6 WNW 1010,4 40 0,2
03.08.2020 08:00:00 16,3 14,7 7 4 11 6 WNW 1010,2 45 0,0
03.08.2020 07:00:00 16,3 15,5 4 2 7 4 W 1010,3 40 0,0
03.08.2020 06:00:00 15,8 15,2 0 0 4 2 N 1010,2 40 0,0
03.08.2020 05:00:00 15,5 14,7 0 0 7 4 N 1010,2 45 0,0
03.08.2020 04:00:00 15,7 14,7 7 4 7 4 WZW 1010,3 45 0,0
03.08.2020 03:00:00 15,9 14,8 4 2 7 4 WNW 1010,4 45 0,0
03.08.2020 02:00:00 16,3 14,7 4 2 14 8 WNW 1010,6 45 0,0
03.08.2020 01:00:00 16,8 14,6 7 4 18 10 WNW 1010,6 50 0,0
03.08.2020 00:00:00 17,3 14,9 14 8 18 10 W 1010,4 45 0,0
02.08.2020 23:00:00 17,3 15,1 14 8 18 10 W 1010,4 40 0,0
02.08.2020 22:00:00 17,9 15,5 14 8 22 12 W 1010,3 45 0,0
02.08.2020 21:00:00 17,5 15,8 18 10 29 16 W 1010,0 40 0,0
02.08.2020 20:00:00 17,9 16,1 22 12 32 18 W 1009,7 30 0,0
02.08.2020 19:00:00 18,7 16,7 25 14 32 18 ZW 1009,5 29 0,0
02.08.2020 18:00:00 19,0 16,8 22 12 40 21 WZW 1009,6 30 0,0
02.08.2020 17:00:00 19,0 17,1 29 16 36 19 ZW 1010,2 26 0,0
02.08.2020 16:00:00 18,5 17,0 25 14 32 18 ZW 1010,7 20 0,0
02.08.2020 15:00:00 18,7 17,9 18 10 25 14 ZW 1011,1 12 0,0
02.08.2020 14:00:00 18,8 17,1 22 12 25 14 ZW 1011,3 25 0,0
02.08.2020 13:00:00 20,3 17,7 18 10 22 12 ZW 1011,4 30 0,0
02.08.2020 12:00:00 18,4 16,7 14 8 22 12 ZZW 1011,6 29 0,0
02.08.2020 11:00:00 17,6 16,1 18 10 22 12 Z 1011,8 29 0,0
02.08.2020 10:00:00 17,4 16,1 18 10 25 14 Z 1011,7 29 0,1
02.08.2020 09:00:00 18,1 15,7 22 12 29 16 Z 1012,2 35 0,0
02.08.2020 08:00:00 17,6 15,6 18 10 29 16 Z 1012,8 35 0,0
02.08.2020 07:00:00 17,7 15,5 22 12 29 16 ZZO 1012,9 40 0,0
02.08.2020 06:00:00 17,1 15,6 22 12 29 16 ZZO 1013,3 45 0,0
02.08.2020 05:00:00 16,7 15,9 18 10 22 12 ZZO 1013,7 40 0,0
02.08.2020 04:00:00 16,8 15,8 11 6 14 8 ZO 1014,4 45 0,0
02.08.2020 03:00:00 16,5 15,4 7 4 14 8 OZO 1014,7 45 0,0
02.08.2020 02:00:00 16,5 15,9 11 6 14 8 OZO 1015,2 28 0,0
02.08.2020 01:00:00 16,6 16,1 7 4 11 6 OZO 1015,4 21 0,0
02.08.2020 00:00:00 16,7 16,1 4 2 14 8 OZO 1015,8 18 0,0
01.08.2020 23:00:00 17,0 16,2 7 4 11 6 OZO 1016,2 29 0,0
01.08.2020 22:00:00 17,0 15,9 7 4 7 4 OZO 1016,7 30 0,0
01.08.2020 21:00:00 17,2 15,4 4 2 7 4 ZZO 1017,0 40 0,0
01.08.2020 20:00:00 18,0 15,6 4 2 11 6 Z 1017,3 45 0,0
01.08.2020 19:00:00 19,4 15,9 11 6 14 8 ZZW 1017,6 40 0,0
01.08.2020 18:00:00 19,9 15,3 11 6 18 10 Z 1017,8 40 0,0
01.08.2020 17:00:00 19,6 15,7 14 8 18 10 Z 1018,0 35 0,0
01.08.2020 16:00:00 20,1 15,5 18 10 22 12 ZZW 1018,1 30 0,0
01.08.2020 15:00:00 20,0 15,4 18 10 22 12 Z 1018,5 45 0,0
01.08.2020 14:00:00 20,7 15,7 14 8 22 12 Z 1018,6 45 0,0
01.08.2020 13:00:00 22,3 15,9 14 8 18 10 Z 1018,9 40 0,0
01.08.2020 12:00:00 19,5 16,2 11 6 18 10 Z 1018,9 45 0,0
01.08.2020 11:00:00 19,9 16,3 14 8 14 8 ZZW 1019,0 30 0,0
01.08.2020 10:00:00 20,4 16,0 4 2 7 4 ZZO 1018,8 40 0,0
01.08.2020 09:00:00 18,8 14,9 4 2 7 4 ZO 1018,7 40 0,0
01.08.2020 08:00:00 18,3 14,2 4 2 7 4 ONO 1018,5 40 0,0
01.08.2020 07:00:00 17,3 13,6 0 0 7 4 N 1018,6 45 0,0
01.08.2020 06:00:00 15,6 13,8 4 2 7 4 NO 1018,5 45 0,0
01.08.2020 05:00:00 14,4 13,6 4 2 7 4 NO 1018,4 45 0,0
01.08.2020 04:00:00 14,6 13,9 0 0 4 2 N 1018,3 30 0,0
01.08.2020 03:00:00 14,8 14,1 0 0 4 2 N 1018,5 30 0,0
01.08.2020 02:00:00 15,3 14,7 0 0 4 2 N 1018,7 35 0,0
01.08.2020 01:00:00 15,5 14,7 4 2 7 4 ZZW 1018,7 30 0,0
01.08.2020 00:00:00 16,2 15,2 7 4 11 6 Z 1018,8 35 0,0
31.07.2020 23:00:00 16,2 15,1 7 4 14 8 Z 1018,9 35 0,0
31.07.2020 22:00:00 16,2 14,6 11 6 14 8 Z 1018,7 45 0,0
31.07.2020 21:00:00 16,7 14,9 7 4 11 6 ZZO 1018,6 45 0,0
31.07.2020 20:00:00 18,0 15,4 7 4 14 8 Z 1018,1 40 0,0
31.07.2020 19:00:00 18,1 15,5 11 6 14 8 Z 1018,1 30 0,0
31.07.2020 18:00:00 19,4 16,1 7 4 14 8 Z 1017,9 40 0,0
31.07.2020 17:00:00 18,9 15,9 14 8 18 10 Z 1017,5 35 0,0
31.07.2020 16:00:00 17,8 15,2 11 6 22 12 Z 1017,4 45 0,0
31.07.2020 15:00:00 20,2 14,8 18 10 25 14 Z 1016,8 40 0,0
31.07.2020 14:00:00 23,0 12,9 7 4 22 12 NNW 1016,3 35 0,0
31.07.2020 13:00:00 21,2 13,4 11 6 29 16 N 1016,1 45 0,0
31.07.2020 12:00:00 19,9 13,4 18 10 29 16 N 1015,7 35 0,0
31.07.2020 11:00:00 19,4 13,8 18 10 32 18 NNW 1015,2 30 0,0
31.07.2020 10:00:00 17,8 13,5 22 12 32 18 NNW 1014,9 35 0,0
31.07.2020 09:00:00 17,4 13,5 14 8 32 18 NW 1014,2 45 0,0
31.07.2020 08:00:00 16,1 13,2 14 8 32 18 NW 1013,9 40 0,0
31.07.2020 07:00:00 15,4 13,1 18 10 32 18 WNW 1013,7 40 0,0
31.07.2020 06:00:00 15,0 12,7 18 10 32 18 WNW 1013,4 45 0,0
31.07.2020 05:00:00 14,8 12,7 22 12 32 18 WNW 1013,2 45 0,0
31.07.2020 04:00:00 14,6 12,6 22 12 36 19 WNW 1013,2 45 0,0
31.07.2020 03:00:00 14,4 12,4 25 14 36 19 W 1013,1 45 0,0
31.07.2020 02:00:00 14,3 12,2 22 12 40 21 W 1013,3 45 0,0
31.07.2020 01:00:00 14,9 12,0 29 16 43 23 W 1013,6 40 0,0
31.07.2020 00:00:00 15,3 12,2 29 16 43 23 W 1013,8 35 0,0
30.07.2020 23:00:00 15,3 12,1 25 14 40 21 WNW 1014,3 40 0,0
30.07.2020 22:00:00 15,4 12,3 32 18 40 21 W 1014,4 40 0,0
30.07.2020 21:00:00 15,2 13,0 32 18 43 23 W 1014,4 35 0,0
30.07.2020 20:00:00 15,1 13,1 36 19 43 23 W 1014,3 35 0,0
30.07.2020 19:00:00 15,6 13,1 32 18 47 25 W 1014,2 45 0,0
30.07.2020 18:00:00 15,2 13,6 36 19 50 27 W 1014,4 29 0,0
30.07.2020 17:00:00 15,4 13,4 40 21 50 27 W 1014,5 40 0,0
30.07.2020 16:00:00 15,2 13,0 40 21 50 27 W 1014,5 22 0,0
30.07.2020 15:00:00 15,5 13,2 40 21 58 31 W 1014,3 16 0,0
30.07.2020 14:00:00 15,9 13,0 43 23 58 31 W 1013,8 30 0,0
30.07.2020 13:00:00 16,1 12,8 43 23 58 31 W 1013,6 35 0,0
30.07.2020 12:00:00 16,3 13,2 40 21 58 31 W 1013,3 40 0,0
30.07.2020 11:00:00 15,4 12,9 40 21 50 27 WZW 1012,9 45 0,0
30.07.2020 10:00:00 14,6 12,8 36 19 50 27 WZW 1012,8 45 0,0
30.07.2020 09:00:00 14,8 12,7 40 21 54 29 W 1012,5 40 0,0
30.07.2020 08:00:00 14,8 12,3 40 21 54 29 W 1012,2 35 0,0
30.07.2020 07:00:00 14,4 12,1 40 21 54 29 W 1012,0 40 0,0
30.07.2020 06:00:00 14,2 11,9 43 23 58 31 W 1011,8 40 0,0
30.07.2020 05:00:00 14,4 11,7 43 23 54 29 W 1011,6 40 0,0
30.07.2020 04:00:00 14,5 12,2 40 21 54 29 W 1011,5 40 0,0
30.07.2020 03:00:00 14,5 12,4 40 21 50 27 W 1011,8 30 0,0
30.07.2020 02:00:00 14,7 12,0 40 21 50 27 W 1011,7 35 0,0
30.07.2020 01:00:00 14,9 12,9 36 19 54 29 W 1011,6 40 0,0
30.07.2020 00:00:00 15,5 12,6 43 23 58 31 WZW 1011,4 40 0,0
29.07.2020 23:00:00 15,9 13,0 43 23 58 31 W 1011,3 40 0,0
29.07.2020 22:00:00 15,8 13,1 40 21 50 27 WZW 1011,4 45 0,0
29.07.2020 21:00:00 16,2 13,1 40 21 50 27 WZW 1011,1 40 0,0

tt = temperatuur
td = dauwpunt
ff = windsnelheid
fx = windstoten
dd = windrichting
ppp = luchtdruk
vv = zicht
rr = neerslag

Weerstations in de omgeving